owner,sensor,date,latitude,longitude,vertical_datum,wind_speed,wind_to_direction,wind_speed_of_gust,qcFlag 
DISL,ioos:station:DISL:BSCA:1,2019-06-01T00:00:00Z,30.3288,-87.8293,0.0,6.9,231.0,99.0,'11111222,11111222,11144222' 
DISL,ioos:station:DISL:BSCA:1,2019-06-01T00:30:00Z,30.3288,-87.8293,0.0,7.0,227.0,99.0,'11111222,11111222,11144222' 
DISL,ioos:station:DISL:BSCA:1,2019-06-01T00:50:00Z,30.3288,-87.8293,0.0,6.86,229.0,-9999.0,'11111222,11111222,99999222' 
DISL,ioos:station:DISL:BSCA:1,2019-06-01T01:00:00Z,30.3288,-87.8293,0.0,6.9,228.0,99.0,'11111222,11111222,11144222' 
DISL,ioos:station:DISL:BSCA:1,2019-06-01T01:30:00Z,30.3288,-87.8293,0.0,6.5,237.0,99.0,'11111222,11111222,11144222' 
DISL,ioos:station:DISL:BSCA:1,2019-06-01T01:50:00Z,30.3288,-87.8293,0.0,7.08,242.1,-9999.0,'11111222,11111222,99999222' 
DISL,ioos:station:DISL:BSCA:1,2019-06-01T02:00:00Z,30.3288,-87.8293,0.0,7.2,240.0,99.0,'11111222,11111222,11144222' 
DISL,ioos:station:DISL:BSCA:1,2019-06-01T02:30:00Z,30.3288,-87.8293,0.0,6.8,253.0,99.0,'11111222,11111222,11144222' 
DISL,ioos:station:DISL:BSCA:1,2019-06-01T02:50:00Z,30.3288,-87.8293,0.0,6.8,260.5,-9999.0,'11111222,11111222,99999222' 
DISL,ioos:station:DISL:BSCA:1,2019-06-01T03:00:00Z,30.3288,-87.8293,0.0,6.6,251.0,99.0,'11111222,11111222,11144222' 
DISL,ioos:station:DISL:BSCA:1,2019-06-01T03:30:00Z,30.3288,-87.8293,0.0,6.6,259.0,99.0,'11111222,11111222,11144222' 
DISL,ioos:station:DISL:BSCA:1,2019-06-01T03:50:00Z,30.3288,-87.8293,0.0,6.21,254.4,-9999.0,'11111222,11111222,99999222' 
DISL,ioos:station:DISL:BSCA:1,2019-06-01T04:00:00Z,30.3288,-87.8293,0.0,6.7,258.0,99.0,'11111222,11111222,11144222' 
DISL,ioos:station:DISL:BSCA:1,2019-06-01T04:30:00Z,30.3288,-87.8293,0.0,6.4,262.0,99.0,'11111222,11111222,11144222' 
DISL,ioos:station:DISL:BSCA:1,2019-06-01T04:50:00Z,30.3288,-87.8293,0.0,6.02,258.2,-9999.0,'11111222,11111222,99999222' 
DISL,ioos:station:DISL:BSCA:1,2019-06-01T05:00:00Z,30.3288,-87.8293,0.0,6.2,253.0,99.0,'11111222,11111222,11144222' 
DISL,ioos:station:DISL:BSCA:1,2019-06-01T05:30:00Z,30.3288,-87.8293,0.0,6.2,254.0,99.0,'11111222,11111222,11144222' 
DISL,ioos:station:DISL:BSCA:1,2019-06-01T05:50:00Z,30.3288,-87.8293,0.0,6.05,254.6,-9999.0,'11111222,11111222,99999222' 
DISL,ioos:station:DISL:BSCA:1,2019-06-01T06:00:00Z,30.3288,-87.8293,0.0,5.9,257.0,99.0,'11111222,11111222,11144222' 
DISL,ioos:station:DISL:BSCA:1,2019-06-01T06:30:00Z,30.3288,-87.8293,0.0,4.8,253.0,99.0,'11111222,11111222,11144222' 
DISL,ioos:station:DISL:BSCA:1,2019-06-01T06:50:00Z,30.3288,-87.8293,0.0,4.95,258.6,-9999.0,'11111222,11111222,99999222' 
DISL,ioos:station:DISL:BSCA:1,2019-06-01T07:00:00Z,30.3288,-87.8293,0.0,5.3,256.0,99.0,'11111222,11111222,11144222' 
DISL,ioos:station:DISL:BSCA:1,2019-06-01T07:30:00Z,30.3288,-87.8293,0.0,6.1,246.0,99.0,'11111222,11111222,11144222' 
DISL,ioos:station:DISL:BSCA:1,2019-06-01T07:50:00Z,30.3288,-87.8293,0.0,6.17,277.6,-9999.0,'11111222,11111222,99999222' 
DISL,ioos:station:DISL:BSCA:1,2019-06-01T08:00:00Z,30.3288,-87.8293,0.0,5.7,266.0,99.0,'11111222,11111222,11144222' 
DISL,ioos:station:DISL:BSCA:1,2019-06-01T08:30:00Z,30.3288,-87.8293,0.0,4.9,54.0,99.0,'11111222,11111222,11144222' 
DISL,ioos:station:DISL:BSCA:1,2019-06-01T08:50:00Z,30.3288,-87.8293,0.0,4.93,17.87,-9999.0,'11111222,11111222,99999222' 
DISL,ioos:station:DISL:BSCA:1,2019-06-01T09:00:00Z,30.3288,-87.8293,0.0,3.9,38.0,99.0,'11111222,11111222,11144222' 
DISL,ioos:station:DISL:BSCA:1,2019-06-01T09:30:00Z,30.3288,-87.8293,0.0,1.6,359.0,99.0,'11111222,11111222,11144222' 
DISL,ioos:station:DISL:BSCA:1,2019-06-01T09:50:00Z,30.3288,-87.8293,0.0,1.8,44.87,-9999.0,'11111222,11111222,99999222' 
DISL,ioos:station:DISL:BSCA:1,2019-06-01T10:00:00Z,30.3288,-87.8293,0.0,2.4,47.0,99.0,'11111222,11111222,11144222' 
DISL,ioos:station:DISL:BSCA:1,2019-06-01T10:30:00Z,30.3288,-87.8293,0.0,1.1,336.0,99.0,'11111222,11111222,11144222' 
DISL,ioos:station:DISL:BSCA:1,2019-06-01T10:50:00Z,30.3288,-87.8293,0.0,1.68,263.7,-9999.0,'11111222,11111222,99999222' 
DISL,ioos:station:DISL:BSCA:1,2019-06-01T11:00:00Z,30.3288,-87.8293,0.0,1.3,82.0,99.0,'11111222,11111222,11144222' 
DISL,ioos:station:DISL:BSCA:1,2019-06-01T11:30:00Z,30.3288,-87.8293,0.0,0.9,347.0,99.0,'11111222,11111222,11144222' 
DISL,ioos:station:DISL:BSCA:1,2019-06-01T11:50:00Z,30.3288,-87.8293,0.0,1.15,353.5,-9999.0,'11111222,11111222,99999222' 
DISL,ioos:station:DISL:BSCA:1,2019-06-01T12:00:00Z,30.3288,-87.8293,0.0,2.2,61.0,99.0,'11111222,11111222,11144222' 
DISL,ioos:station:DISL:BSCA:1,2019-06-01T12:30:00Z,30.3288,-87.8293,0.0,1.5,333.0,99.0,'11111222,11111222,11144222' 
DISL,ioos:station:DISL:BSCA:1,2019-06-01T12:50:00Z,30.3288,-87.8293,0.0,2.18,310.8,-9999.0,'11111222,11111222,99999222' 
DISL,ioos:station:DISL:BSCA:1,2019-06-01T13:00:00Z,30.3288,-87.8293,0.0,2.4,301.0,99.0,'11111222,11111222,11144222' 
DISL,ioos:station:DISL:BSCA:1,2019-06-01T13:30:00Z,30.3288,-87.8293,0.0,3.1,317.0,99.0,'11111222,11111222,11144222' 
DISL,ioos:station:DISL:BSCA:1,2019-06-01T13:50:00Z,30.3288,-87.8293,0.0,2.23,307.7,-9999.0,'11111222,11111222,99999222' 
DISL,ioos:station:DISL:BSCA:1,2019-06-01T14:00:00Z,30.3288,-87.8293,0.0,1.2,330.0,99.0,'11111222,11111222,11144222' 
DISL,ioos:station:DISL:BSCA:1,2019-06-01T14:30:00Z,30.3288,-87.8293,0.0,0.5,301.0,99.0,'11111222,11111222,11144222' 
DISL,ioos:station:DISL:BSCA:1,2019-06-01T14:50:00Z,30.3288,-87.8293,0.0,0.76,218.4,-9999.0,'11111222,11111222,99999222' 
DISL,ioos:station:DISL:BSCA:1,2019-06-01T15:00:00Z,30.3288,-87.8293,0.0,1.1,213.0,99.0,'11111222,11111222,11144222' 
DISL,ioos:station:DISL:BSCA:1,2019-06-01T15:30:00Z,30.3288,-87.8293,0.0,1.4,227.0,99.0,'11111222,11111222,11144222' 
DISL,ioos:station:DISL:BSCA:1,2019-06-01T15:50:00Z,30.3288,-87.8293,0.0,1.61,228.3,-9999.0,'11111222,11111222,99999222' 
DISL,ioos:station:DISL:BSCA:1,2019-06-01T16:00:00Z,30.3288,-87.8293,0.0,1.1,224.0,99.0,'11111222,11111222,11144222' 
DISL,ioos:station:DISL:BSCA:1,2019-06-01T16:30:00Z,30.3288,-87.8293,0.0,2.2,227.0,99.0,'11111222,11111222,11144222' 
DISL,ioos:station:DISL:BSCA:1,2019-06-01T16:50:00Z,30.3288,-87.8293,0.0,2.17,241.6,-9999.0,'11111222,11111222,99999222' 
DISL,ioos:station:DISL:BSCA:1,2019-06-01T17:00:00Z,30.3288,-87.8293,0.0,2.5,241.0,99.0,'11111222,11111222,11144222' 
DISL,ioos:station:DISL:BSCA:1,2019-06-01T17:30:00Z,30.3288,-87.8293,0.0,3.4,229.0,99.0,'11111222,11111222,11144222' 
DISL,ioos:station:DISL:BSCA:1,2019-06-01T17:50:00Z,30.3288,-87.8293,0.0,3.13,229.1,-9999.0,'11111222,11111222,99999222' 
DISL,ioos:station:DISL:BSCA:1,2019-06-01T18:00:00Z,30.3288,-87.8293,0.0,3.4,228.0,99.0,'11111222,11111222,11144222' 
DISL,ioos:station:DISL:BSCA:1,2019-06-01T18:30:00Z,30.3288,-87.8293,0.0,5.2,233.0,99.0,'11111222,11111222,11144222' 
DISL,ioos:station:DISL:BSCA:1,2019-06-01T18:50:00Z,30.3288,-87.8293,0.0,6.72,249.6,-9999.0,'11111222,11111222,99999222' 
DISL,ioos:station:DISL:BSCA:1,2019-06-01T19:00:00Z,30.3288,-87.8293,0.0,6.7,251.0,99.0,'11111222,11111222,11144222' 
DISL,ioos:station:DISL:BSCA:1,2019-06-01T19:30:00Z,30.3288,-87.8293,0.0,6.8,284.0,99.0,'11111222,11111222,11144222' 
DISL,ioos:station:DISL:BSCA:1,2019-06-01T19:50:00Z,30.3288,-87.8293,0.0,5.44,288.2,-9999.0,'11111222,11111222,99999222' 
DISL,ioos:station:DISL:BSCA:1,2019-06-01T20:00:00Z,30.3288,-87.8293,0.0,4.7,297.0,99.0,'11111222,11111222,11144222' 
DISL,ioos:station:DISL:BSCA:1,2019-06-01T20:30:00Z,30.3288,-87.8293,0.0,3.5,358.0,99.0,'11111222,11111222,11144222' 
DISL,ioos:station:DISL:BSCA:1,2019-06-01T20:50:00Z,30.3288,-87.8293,0.0,1.6,273.6,-9999.0,'11111222,11111222,99999222' 
DISL,ioos:station:DISL:BSCA:1,2019-06-01T21:00:00Z,30.3288,-87.8293,0.0,2.6,272.0,99.0,'11111222,11111222,11144222' 
DISL,ioos:station:DISL:BSCA:1,2019-06-01T21:30:00Z,30.3288,-87.8293,0.0,7.0,298.0,99.0,'11111222,11111222,11144222' 
DISL,ioos:station:DISL:BSCA:1,2019-06-01T21:50:00Z,30.3288,-87.8293,0.0,6.37,298.2,-9999.0,'11111222,11111222,99999222' 
DISL,ioos:station:DISL:BSCA:1,2019-06-01T22:00:00Z,30.3288,-87.8293,0.0,5.0,301.0,99.0,'11111222,11111222,11144222' 
DISL,ioos:station:DISL:BSCA:1,2019-06-01T22:30:00Z,30.3288,-87.8293,0.0,2.6,275.0,99.0,'11111222,11111222,11144222' 
DISL,ioos:station:DISL:BSCA:1,2019-06-01T22:50:00Z,30.3288,-87.8293,0.0,2.42,280.9,-9999.0,'11111222,11111222,99999222' 
DISL,ioos:station:DISL:BSCA:1,2019-06-01T23:00:00Z,30.3288,-87.8293,0.0,2.5,286.0,99.0,'11111222,11111222,11144222' 
DISL,ioos:station:DISL:BSCA:1,2019-06-01T23:30:00Z,30.3288,-87.8293,0.0,5.3,323.0,99.0,'11111222,11111222,11144222' 
DISL,ioos:station:DISL:BSCA:1,2019-06-01T23:50:00Z,30.3288,-87.8293,0.0,3.98,338.0,-9999.0,'11111222,11111222,99999222' 
DISL,ioos:station:DISL:BSCA:1,2019-06-02T00:00:00Z,30.3288,-87.8293,0.0,3.1,358.0,99.0,'11111222,11111222,11144222' 
DISL,ioos:station:DISL:BSCA:1,2019-06-02T00:30:00Z,30.3288,-87.8293,0.0,2.0,281.0,99.0,'11111222,11111222,11144222' 
DISL,ioos:station:DISL:BSCA:1,2019-06-02T00:50:00Z,30.3288,-87.8293,0.0,2.32,260.2,-9999.0,'11111222,11111222,99999222' 
DISL,ioos:station:DISL:BSCA:1,2019-06-02T01:00:00Z,30.3288,-87.8293,0.0,2.5,246.0,99.0,'11111222,11111222,11144222' 
DISL,ioos:station:DISL:BSCA:1,2019-06-02T01:30:00Z,30.3288,-87.8293,0.0,0.5,239.0,99.0,'11111222,11111222,11144222' 
DISL,ioos:station:DISL:BSCA:1,2019-06-02T01:50:00Z,30.3288,-87.8293,0.0,1.02,261.7,-9999.0,'11111222,11111222,99999222' 
DISL,ioos:station:DISL:BSCA:1,2019-06-02T02:00:00Z,30.3288,-87.8293,0.0,1.2,255.0,99.0,'11111222,11111222,11144222' 
DISL,ioos:station:DISL:BSCA:1,2019-06-02T02:30:00Z,30.3288,-87.8293,0.0,1.4,250.0,99.0,'11111222,11111222,11144222' 
DISL,ioos:station:DISL:BSCA:1,2019-06-02T02:50:00Z,30.3288,-87.8293,0.0,0.79,231.4,-9999.0,'11111222,11111222,99999222' 
DISL,ioos:station:DISL:BSCA:1,2019-06-02T03:00:00Z,30.3288,-87.8293,0.0,1.2,239.0,99.0,'11111222,11111222,11144222' 
DISL,ioos:station:DISL:BSCA:1,2019-06-02T03:30:00Z,30.3288,-87.8293,0.0,2.7,239.0,99.0,'11111222,11111222,11144222' 
DISL,ioos:station:DISL:BSCA:1,2019-06-02T03:50:00Z,30.3288,-87.8293,0.0,2.23,252.9,-9999.0,'11111222,11111222,99999222' 
DISL,ioos:station:DISL:BSCA:1,2019-06-02T04:00:00Z,30.3288,-87.8293,0.0,2.6,255.0,99.0,'11111222,11111222,11144222' 
DISL,ioos:station:DISL:BSCA:1,2019-06-02T04:30:00Z,30.3288,-87.8293,0.0,3.1,282.0,99.0,'11111222,11111222,11144222' 
DISL,ioos:station:DISL:BSCA:1,2019-06-02T04:50:00Z,30.3288,-87.8293,0.0,3.15,277.1,-9999.0,'11111222,11111222,99999222' 
DISL,ioos:station:DISL:BSCA:1,2019-06-02T05:00:00Z,30.3288,-87.8293,0.0,3.9,270.0,99.0,'11111222,11111222,11144222' 
DISL,ioos:station:DISL:BSCA:1,2019-06-02T05:30:00Z,30.3288,-87.8293,0.0,3.3,267.0,99.0,'11111222,11111222,11144222' 
DISL,ioos:station:DISL:BSCA:1,2019-06-02T05:50:00Z,30.3288,-87.8293,0.0,3.52,261.1,-9999.0,'11111222,11111222,99999222' 
DISL,ioos:station:DISL:BSCA:1,2019-06-02T06:00:00Z,30.3288,-87.8293,0.0,4.0,255.0,99.0,'11111222,11111222,11144222' 
DISL,ioos:station:DISL:BSCA:1,2019-06-02T06:30:00Z,30.3288,-87.8293,0.0,3.7,270.0,99.0,'11111222,11111222,11144222' 
DISL,ioos:station:DISL:BSCA:1,2019-06-02T06:50:00Z,30.3288,-87.8293,0.0,3.52,272.4,-9999.0,'11111222,11111222,99999222' 
DISL,ioos:station:DISL:BSCA:1,2019-06-02T07:00:00Z,30.3288,-87.8293,0.0,3.6,270.0,99.0,'11111222,11111222,11144222' 
DISL,ioos:station:DISL:BSCA:1,2019-06-02T07:30:00Z,30.3288,-87.8293,0.0,3.7,284.0,99.0,'11111222,11111222,11144222' 
DISL,ioos:station:DISL:BSCA:1,2019-06-02T07:50:00Z,30.3288,-87.8293,0.0,3.54,269.3,-9999.0,'11111222,11111222,99999222' 
DISL,ioos:station:DISL:BSCA:1,2019-06-02T08:00:00Z,30.3288,-87.8293,0.0,3.6,274.0,99.0,'11111222,11111222,11144222' 
DISL,ioos:station:DISL:BSCA:1,2019-06-02T08:30:00Z,30.3288,-87.8293,0.0,3.6,292.0,99.0,'11111222,11111222,11144222' 
DISL,ioos:station:DISL:BSCA:1,2019-06-02T08:50:00Z,30.3288,-87.8293,0.0,3.41,289.6,-9999.0,'11111222,11111222,99999222' 
DISL,ioos:station:DISL:BSCA:1,2019-06-02T09:00:00Z,30.3288,-87.8293,0.0,3.6,290.0,99.0,'11111222,11111222,11144222' 
DISL,ioos:station:DISL:BSCA:1,2019-06-02T09:30:00Z,30.3288,-87.8293,0.0,3.4,291.0,99.0,'11111222,11111222,11144222' 
DISL,ioos:station:DISL:BSCA:1,2019-06-02T09:50:00Z,30.3288,-87.8293,0.0,2.26,283.8,-9999.0,'11111222,11111222,99999222' 
DISL,ioos:station:DISL:BSCA:1,2019-06-02T10:00:00Z,30.3288,-87.8293,0.0,2.2,273.0,99.0,'11111222,11111222,11144222' 
DISL,ioos:station:DISL:BSCA:1,2019-06-02T10:30:00Z,30.3288,-87.8293,0.0,2.2,28.0,99.0,'11111222,11111222,11144222' 
DISL,ioos:station:DISL:BSCA:1,2019-06-02T10:50:00Z,30.3288,-87.8293,0.0,2.02,20.2,-9999.0,'11111222,11111222,99999222' 
DISL,ioos:station:DISL:BSCA:1,2019-06-02T11:00:00Z,30.3288,-87.8293,0.0,2.4,16.0,99.0,'11111222,11111222,11144222' 
DISL,ioos:station:DISL:BSCA:1,2019-06-02T11:30:00Z,30.3288,-87.8293,0.0,2.8,40.0,99.0,'11111222,11111222,11144222' 
DISL,ioos:station:DISL:BSCA:1,2019-06-02T11:50:00Z,30.3288,-87.8293,0.0,3.51,43.33,-9999.0,'11111222,11111222,99999222' 
DISL,ioos:station:DISL:BSCA:1,2019-06-02T12:00:00Z,30.3288,-87.8293,0.0,3.4,39.0,99.0,'11111222,11111222,11144222' 
DISL,ioos:station:DISL:BSCA:1,2019-06-02T12:30:00Z,30.3288,-87.8293,0.0,2.8,58.0,99.0,'11111222,11111222,11144222' 
DISL,ioos:station:DISL:BSCA:1,2019-06-02T12:50:00Z,30.3288,-87.8293,0.0,3.62,48.04,-9999.0,'11111222,11111222,99999222' 
DISL,ioos:station:DISL:BSCA:1,2019-06-02T13:00:00Z,30.3288,-87.8293,0.0,3.2,43.0,99.0,'11111222,11111222,11144222' 
DISL,ioos:station:DISL:BSCA:1,2019-06-02T13:30:00Z,30.3288,-87.8293,0.0,2.2,46.0,99.0,'11111222,11111222,11144222' 
DISL,ioos:station:DISL:BSCA:1,2019-06-02T13:50:00Z,30.3288,-87.8293,0.0,2.64,56.29,-9999.0,'11111222,11111222,99999222' 
DISL,ioos:station:DISL:BSCA:1,2019-06-02T14:00:00Z,30.3288,-87.8293,0.0,2.0,53.0,99.0,'11111222,11111222,11144222' 
DISL,ioos:station:DISL:BSCA:1,2019-06-02T14:30:00Z,30.3288,-87.8293,0.0,2.6,24.0,99.0,'11111222,11111222,11144222' 
DISL,ioos:station:DISL:BSCA:1,2019-06-02T14:50:00Z,30.3288,-87.8293,0.0,1.7,50.44,-9999.0,'11111222,11111222,99999222' 
DISL,ioos:station:DISL:BSCA:1,2019-06-02T15:00:00Z,30.3288,-87.8293,0.0,1.2,69.0,99.0,'11111222,11111222,11144222' 
DISL,ioos:station:DISL:BSCA:1,2019-06-02T15:30:00Z,30.3288,-87.8293,0.0,1.2,46.0,99.0,'11111222,11111222,11144222' 
DISL,ioos:station:DISL:BSCA:1,2019-06-02T15:50:00Z,30.3288,-87.8293,0.0,0.42,17.5,-9999.0,'11111222,11111222,99999222' 
DISL,ioos:station:DISL:BSCA:1,2019-06-02T16:00:00Z,30.3288,-87.8293,0.0,1.6,229.0,99.0,'11111222,11111222,11144222' 
DISL,ioos:station:DISL:BSCA:1,2019-06-02T16:30:00Z,30.3288,-87.8293,0.0,2.9,223.0,99.0,'11111222,11111222,11144222' 
DISL,ioos:station:DISL:BSCA:1,2019-06-02T16:50:00Z,30.3288,-87.8293,0.0,3.65,205.2,-9999.0,'11111222,11111222,99999222' 
DISL,ioos:station:DISL:BSCA:1,2019-06-02T17:00:00Z,30.3288,-87.8293,0.0,3.3,198.0,99.0,'11111222,11111222,11144222' 
DISL,ioos:station:DISL:BSCA:1,2019-06-02T17:30:00Z,30.3288,-87.8293,0.0,3.0,192.0,99.0,'11111222,11111222,11144222' 
DISL,ioos:station:DISL:BSCA:1,2019-06-02T17:50:00Z,30.3288,-87.8293,0.0,5.48,153.5,-9999.0,'11111222,11111222,99999222' 
DISL,ioos:station:DISL:BSCA:1,2019-06-02T18:00:00Z,30.3288,-87.8293,0.0,5.6,154.0,99.0,'11111222,11111222,11144222' 
DISL,ioos:station:DISL:BSCA:1,2019-06-02T18:30:00Z,30.3288,-87.8293,0.0,5.1,162.0,99.0,'11111222,11111222,11144222' 
DISL,ioos:station:DISL:BSCA:1,2019-06-02T18:50:00Z,30.3288,-87.8293,0.0,4.17,182.9,-9999.0,'11111222,11111222,99999222' 
DISL,ioos:station:DISL:BSCA:1,2019-06-02T19:00:00Z,30.3288,-87.8293,0.0,4.4,185.0,99.0,'11111222,11111222,11144222' 
DISL,ioos:station:DISL:BSCA:1,2019-06-02T19:30:00Z,30.3288,-87.8293,0.0,4.4,197.0,99.0,'11111222,11111222,11144222' 
DISL,ioos:station:DISL:BSCA:1,2019-06-02T19:50:00Z,30.3288,-87.8293,0.0,4.03,195.5,-9999.0,'11111222,11111222,99999222' 
DISL,ioos:station:DISL:BSCA:1,2019-06-02T20:00:00Z,30.3288,-87.8293,0.0,4.5,197.0,99.0,'11111222,11111222,11144222' 
DISL,ioos:station:DISL:BSCA:1,2019-06-02T20:30:00Z,30.3288,-87.8293,0.0,4.6,198.0,99.0,'11111222,11111222,11144222' 
DISL,ioos:station:DISL:BSCA:1,2019-06-02T20:50:00Z,30.3288,-87.8293,0.0,4.32,206.3,-9999.0,'11111222,11111222,99999222' 
DISL,ioos:station:DISL:BSCA:1,2019-06-02T21:00:00Z,30.3288,-87.8293,0.0,3.7,201.0,99.0,'11111222,11111222,11144222' 
DISL,ioos:station:DISL:BSCA:1,2019-06-02T21:30:00Z,30.3288,-87.8293,0.0,4.6,209.0,99.0,'11111222,11111222,11144222' 
DISL,ioos:station:DISL:BSCA:1,2019-06-02T21:50:00Z,30.3288,-87.8293,0.0,4.1,213.5,-9999.0,'11111222,11111222,99999222' 
DISL,ioos:station:DISL:BSCA:1,2019-06-02T22:00:00Z,30.3288,-87.8293,0.0,4.0,205.0,99.0,'11111222,11111222,11144222' 
DISL,ioos:station:DISL:BSCA:1,2019-06-02T22:30:00Z,30.3288,-87.8293,0.0,4.1,205.0,99.0,'11111222,11111222,11144222' 
DISL,ioos:station:DISL:BSCA:1,2019-06-02T22:50:00Z,30.3288,-87.8293,0.0,4.36,208.4,-9999.0,'11111222,11111222,99999222' 
DISL,ioos:station:DISL:BSCA:1,2019-06-02T23:00:00Z,30.3288,-87.8293,0.0,4.0,203.0,99.0,'11111222,11111222,11144222' 
DISL,ioos:station:DISL:BSCA:1,2019-06-02T23:30:00Z,30.3288,-87.8293,0.0,4.4,216.0,99.0,'11111222,11111222,11144222' 
DISL,ioos:station:DISL:BSCA:1,2019-06-02T23:50:00Z,30.3288,-87.8293,0.0,4.4,225.8,-9999.0,'11111222,11111222,99999222' 
DISL,ioos:station:DISL:BSCA:1,2019-06-03T00:00:00Z,30.3288,-87.8293,0.0,4.1,216.0,99.0,'11111222,11111222,11144222' 
DISL,ioos:station:DISL:BSCA:1,2019-06-03T00:30:00Z,30.3288,-87.8293,0.0,4.1,223.0,99.0,'11111222,11111222,11144222' 
DISL,ioos:station:DISL:BSCA:1,2019-06-03T00:50:00Z,30.3288,-87.8293,0.0,3.63,222.3,-9999.0,'11111222,11111222,99999222' 
DISL,ioos:station:DISL:BSCA:1,2019-06-03T01:00:00Z,30.3288,-87.8293,0.0,3.4,230.0,99.0,'11111222,11111222,11144222' 
DISL,ioos:station:DISL:BSCA:1,2019-06-03T01:30:00Z,30.3288,-87.8293,0.0,4.2,230.0,99.0,'11111222,11111222,11144222' 
DISL,ioos:station:DISL:BSCA:1,2019-06-03T01:50:00Z,30.3288,-87.8293,0.0,4.37,225.4,-9999.0,'11111222,11111222,99999222' 
DISL,ioos:station:DISL:BSCA:1,2019-06-03T02:00:00Z,30.3288,-87.8293,0.0,4.5,231.0,99.0,'11111222,11111222,11144222' 
DISL,ioos:station:DISL:BSCA:1,2019-06-03T02:30:00Z,30.3288,-87.8293,0.0,4.2,228.0,99.0,'11111222,11111222,11144222' 
DISL,ioos:station:DISL:BSCA:1,2019-06-03T02:50:00Z,30.3288,-87.8293,0.0,3.97,225.3,-9999.0,'11111222,11111222,99999222' 
DISL,ioos:station:DISL:BSCA:1,2019-06-03T03:00:00Z,30.3288,-87.8293,0.0,4.0,219.0,99.0,'11111222,11111222,11144222' 
DISL,ioos:station:DISL:BSCA:1,2019-06-03T03:30:00Z,30.3288,-87.8293,0.0,4.1,226.0,99.0,'11111222,11111222,11144222' 
DISL,ioos:station:DISL:BSCA:1,2019-06-03T03:50:00Z,30.3288,-87.8293,0.0,3.88,230.5,-9999.0,'11111222,11111222,99999222' 
DISL,ioos:station:DISL:BSCA:1,2019-06-03T04:00:00Z,30.3288,-87.8293,0.0,4.0,221.0,99.0,'11111222,11111222,11144222' 
DISL,ioos:station:DISL:BSCA:1,2019-06-03T04:30:00Z,30.3288,-87.8293,0.0,4.4,231.0,99.0,'11111222,11111222,11144222' 
DISL,ioos:station:DISL:BSCA:1,2019-06-03T04:50:00Z,30.3288,-87.8293,0.0,4.15,229.0,-9999.0,'11111222,11111222,99999222' 
DISL,ioos:station:DISL:BSCA:1,2019-06-03T05:00:00Z,30.3288,-87.8293,0.0,3.9,229.0,99.0,'11111222,11111222,11144222' 
DISL,ioos:station:DISL:BSCA:1,2019-06-03T05:30:00Z,30.3288,-87.8293,0.0,3.6,254.0,99.0,'11111222,11111222,11144222' 
DISL,ioos:station:DISL:BSCA:1,2019-06-03T05:50:00Z,30.3288,-87.8293,0.0,3.53,261.8,-9999.0,'11111222,11111222,99999222' 
DISL,ioos:station:DISL:BSCA:1,2019-06-03T06:00:00Z,30.3288,-87.8293,0.0,3.8,269.0,99.0,'11111222,11111222,11144222' 
DISL,ioos:station:DISL:BSCA:1,2019-06-03T06:30:00Z,30.3288,-87.8293,0.0,4.1,263.0,99.0,'11111222,11111222,11144222' 
DISL,ioos:station:DISL:BSCA:1,2019-06-03T06:50:00Z,30.3288,-87.8293,0.0,4.1,263.2,-9999.0,'11111222,11111222,99999222' 
DISL,ioos:station:DISL:BSCA:1,2019-06-03T07:00:00Z,30.3288,-87.8293,0.0,4.1,268.0,99.0,'11111222,11111222,11144222' 
DISL,ioos:station:DISL:BSCA:1,2019-06-03T07:30:00Z,30.3288,-87.8293,0.0,5.2,278.0,99.0,'11111222,11111222,11144222' 
DISL,ioos:station:DISL:BSCA:1,2019-06-03T07:50:00Z,30.3288,-87.8293,0.0,5.15,284.1,-9999.0,'11111222,11111222,99999222' 
DISL,ioos:station:DISL:BSCA:1,2019-06-03T08:00:00Z,30.3288,-87.8293,0.0,5.5,283.0,99.0,'11111222,11111222,11144222' 
DISL,ioos:station:DISL:BSCA:1,2019-06-03T08:30:00Z,30.3288,-87.8293,0.0,4.5,291.0,99.0,'11111222,11111222,11144222' 
DISL,ioos:station:DISL:BSCA:1,2019-06-03T08:50:00Z,30.3288,-87.8293,0.0,4.6,298.0,-9999.0,'11111222,11111222,99999222' 
DISL,ioos:station:DISL:BSCA:1,2019-06-03T09:00:00Z,30.3288,-87.8293,0.0,4.7,297.0,99.0,'11111222,11111222,11144222' 
DISL,ioos:station:DISL:BSCA:1,2019-06-03T09:30:00Z,30.3288,-87.8293,0.0,5.9,313.0,99.0,'11111222,11111222,11144222' 
DISL,ioos:station:DISL:BSCA:1,2019-06-03T09:50:00Z,30.3288,-87.8293,0.0,5.26,315.5,-9999.0,'11111222,11111222,99999222' 
DISL,ioos:station:DISL:BSCA:1,2019-06-03T10:00:00Z,30.3288,-87.8293,0.0,5.0,321.0,99.0,'11111222,11111222,11144222' 
DISL,ioos:station:DISL:BSCA:1,2019-06-03T10:30:00Z,30.3288,-87.8293,0.0,3.7,350.0,99.0,'11111222,11111222,11144222' 
DISL,ioos:station:DISL:BSCA:1,2019-06-03T10:50:00Z,30.3288,-87.8293,0.0,2.76,341.3,-9999.0,'11111222,11111222,99999222' 
DISL,ioos:station:DISL:BSCA:1,2019-06-03T11:00:00Z,30.3288,-87.8293,0.0,3.0,342.0,99.0,'11111222,11111222,11144222' 
DISL,ioos:station:DISL:BSCA:1,2019-06-03T11:30:00Z,30.3288,-87.8293,0.0,3.1,6.0,99.0,'11111222,11111222,11144222' 
DISL,ioos:station:DISL:BSCA:1,2019-06-03T11:50:00Z,30.3288,-87.8293,0.0,2.49,38.6,-9999.0,'11111222,11111222,99999222' 
DISL,ioos:station:DISL:BSCA:1,2019-06-03T12:00:00Z,30.3288,-87.8293,0.0,2.0,30.0,99.0,'11111222,11111222,11144222' 
DISL,ioos:station:DISL:BSCA:1,2019-06-03T12:30:00Z,30.3288,-87.8293,0.0,2.9,27.0,99.0,'11111222,11111222,11144222' 
DISL,ioos:station:DISL:BSCA:1,2019-06-03T12:50:00Z,30.3288,-87.8293,0.0,3.2,36.86,-9999.0,'11111222,11111222,99999222' 
DISL,ioos:station:DISL:BSCA:1,2019-06-03T13:00:00Z,30.3288,-87.8293,0.0,3.3,37.0,99.0,'11111222,11111222,11144222' 
DISL,ioos:station:DISL:BSCA:1,2019-06-03T13:30:00Z,30.3288,-87.8293,0.0,3.5,40.0,99.0,'11111222,11111222,11144222' 
DISL,ioos:station:DISL:BSCA:1,2019-06-03T13:50:00Z,30.3288,-87.8293,0.0,3.62,52.06,-9999.0,'11111222,11111222,99999222' 
DISL,ioos:station:DISL:BSCA:1,2019-06-03T14:00:00Z,30.3288,-87.8293,0.0,3.3,48.0,99.0,'11111222,11111222,11144222' 
DISL,ioos:station:DISL:BSCA:1,2019-06-03T14:30:00Z,30.3288,-87.8293,0.0,2.1,41.0,99.0,'11111222,11111222,11144222' 
DISL,ioos:station:DISL:BSCA:1,2019-06-03T14:50:00Z,30.3288,-87.8293,0.0,2.42,67.56,-9999.0,'11111222,11111222,99999222' 
DISL,ioos:station:DISL:BSCA:1,2019-06-03T15:00:00Z,30.3288,-87.8293,0.0,2.0,77.0,99.0,'11111222,11111222,11144222' 
DISL,ioos:station:DISL:BSCA:1,2019-06-03T15:30:00Z,30.3288,-87.8293,0.0,2.8,68.0,99.0,'11111222,11111222,11144222' 
DISL,ioos:station:DISL:BSCA:1,2019-06-03T15:50:00Z,30.3288,-87.8293,0.0,2.94,58.7,-9999.0,'11111222,11111222,99999222' 
DISL,ioos:station:DISL:BSCA:1,2019-06-03T16:00:00Z,30.3288,-87.8293,0.0,3.3,65.0,99.0,'11111222,11111222,11144222' 
DISL,ioos:station:DISL:BSCA:1,2019-06-03T16:30:00Z,30.3288,-87.8293,0.0,2.2,70.0,99.0,'11111222,11111222,11144222' 
DISL,ioos:station:DISL:BSCA:1,2019-06-03T16:50:00Z,30.3288,-87.8293,0.0,1.56,177.1,-9999.0,'11111222,11111222,99999222' 
DISL,ioos:station:DISL:BSCA:1,2019-06-03T17:00:00Z,30.3288,-87.8293,0.0,2.1,67.0,99.0,'11111222,11111222,11144222' 
DISL,ioos:station:DISL:BSCA:1,2019-06-03T17:30:00Z,30.3288,-87.8293,0.0,1.2,165.0,99.0,'11111222,11111222,11144222' 
DISL,ioos:station:DISL:BSCA:1,2019-06-03T17:50:00Z,30.3288,-87.8293,0.0,4.5,180.4,-9999.0,'11111222,11111222,99999222' 
DISL,ioos:station:DISL:BSCA:1,2019-06-03T18:00:00Z,30.3288,-87.8293,0.0,5.1,170.0,99.0,'11111222,11111222,11144222' 
DISL,ioos:station:DISL:BSCA:1,2019-06-03T18:30:00Z,30.3288,-87.8293,0.0,4.2,176.0,99.0,'11111222,11111222,11144222' 
DISL,ioos:station:DISL:BSCA:1,2019-06-03T18:50:00Z,30.3288,-87.8293,0.0,4.52,167.4,-9999.0,'11111222,11111222,99999222' 
DISL,ioos:station:DISL:BSCA:1,2019-06-03T19:00:00Z,30.3288,-87.8293,0.0,4.8,176.0,99.0,'11111222,11111222,11144222' 